Flag for United Kingdom Weather past 2 weeks in Stornoway, Scotland, United Kingdom

37 °F

Scattered showers. Passing clouds.

Feels Like: 29 °F
Forecast: 39 / 41 °F
Wind: 13 mph from West

Location: Stornoway

Current Time: Nov 30, 2015 at 6:32:10 AM

Latest Report: Nov 30, 2015 at 5:20 AM

Visibility: N/A

Pressure: 29.53 "Hg

Humidity: 87%

Dew point: 34 °F

Location of StornowayLocation

Historic Weather in Stornoway — Graph


Stornoway temperature yesterday

Maximum temperature yesterday: 39 °F (at 12:50 AM)
Minimum temperature yesterday: 36 °F (at 4:20 AM)
Average temperature yesterday: 37 °F

Past Weeks' High & Low Weather Summary

High55 °F (Nov 15, 6:20 PM)100% (Nov 15, 1:20 PM)30.15 "Hg (Nov 15, 1:20 PM)
Low32 °F (Nov 21, 6:20 AM)65% (Nov 21, 12:20 AM)28.91 "Hg (Nov 15, 11:20 PM)
Average43 °F87%29.50 "Hg
* Reported Nov 15 5:20 AM — Nov 30 5:20 AM, Stornoway, Weather by CustomWeather, © 2015

Note: Actual official high and low records may vary slightly from our data, if they occured in-between our weather recording intervals... More about our weather records


Stornoway weather history for previous 24 hours

Time TempWeatherWind HumidityBarometerVisibility
5:20 AM
Mon, Nov 30
37 °FScattered showers. Passing clouds.13 mph87%29.53 "HgN/A
4:50 AM37 °FRain. Passing clouds.12 mph81%29.56 "Hg4 mi
4:20 AM37 °FPassing clouds.25 mph81%29.53 "HgN/A
3:20 AM37 °FChilly.17 mph75%29.53 "HgN/A
2:50 AM37 °FChilly.20 mph81%29.53 "HgN/A
2:20 AM36 °FPassing clouds.23 mph87%29.50 "HgN/A
12:20 AM37 °FPassing clouds.16 mph75%29.47 "HgN/A
11:50 PM
Sun, Nov 29
36 °FPassing clouds.21 mph75%29.47 "HgN/A
10:20 PM39 °FLight rain. Passing clouds.23 mph70%29.42 "HgN/A
9:50 PM37 °FLight rain. Passing clouds.24 mph75%29.42 "Hg6 mi
9:20 PM39 °FPassing clouds.29 mph75%29.39 "HgN/A
8:50 PM39 °FLight rain. Passing clouds.24 mph70%29.36 "HgN/A
8:20 PM37 °FPassing clouds.28 mph81%29.36 "Hg5 mi
7:50 PM37 °FPassing clouds.22 mph75%29.36 "HgN/A
7:20 PM36 °FLight rain. Overcast.25 mph87%29.33 "HgN/A
6:50 PM36 °FLight freezing rain. Passing clouds.22 mph93%29.30 "HgN/A
6:20 PM36 °FSprinkles. Passing clouds.17 mph87%29.30 "HgN/A
5:50 PM36 °FRain showers. Passing clouds.35 mph87%29.27 "Hg4 mi
5:20 PM36 °FScattered showers. Passing clouds.22 mph87%29.24 "HgN/A
4:50 PM37 °FScattered showers. Passing clouds.21 mph75%29.21 "HgN/A
4:20 PM36 °FThunderstorms. Passing clouds.18 mph87%29.21 "Hg2 mi
3:50 PM36 °FScattered showers. Passing clouds.22 mph87%29.18 "HgN/A
3:20 PM37 °FScattered showers. Scattered clouds.26 mph75%29.15 "HgN/A
2:50 PM36 °FThunderstorms. Scattered clouds.29 mph87%29.15 "HgN/A
2:20 PM39 °FScattered showers. Scattered clouds.18 mph70%29.09 "HgN/A
1:50 PM37 °FScattered showers. Scattered clouds.17 mph70%29.09 "HgN/A
1:20 PM37 °FScattered showers. Scattered clouds.22 mph75%29.09 "HgN/A
12:50 PM37 °FScattered showers. Scattered clouds.17 mph81%29.06 "HgN/A
12:20 PM37 °FScattered showers. Scattered clouds.21 mph87%29.06 "HgN/A
11:50 AM36 °FRain showers. Scattered clouds.18 mph87%29.06 "HgN/A
11:20 AM39 °FRain showers. Scattered clouds.29 mph81%29.06 "Hg3 mi
10:50 AM37 °FChilly.16 mph75%29.00 "HgN/A
10:20 AM37 °FChilly.15 mph75%29.03 "HgN/A
9:50 AM37 °FPassing clouds.16 mph75%29.00 "HgN/A
9:20 AM37 °FScattered clouds.9 mph87%29.00 "Hg5 mi
8:50 AM39 °FPassing clouds.13 mph70%29.00 "HgN/A
8:20 AM37 °FChilly.14 mph75%29.00 "HgN/A
7:50 AM37 °FChilly.16 mph70%29.00 "HgN/A
7:20 AM37 °FChilly.10 mph81%29.03 "HgN/A
6:50 AM37 °FPassing clouds.15 mph81%29.03 "HgN/A
6:20 AM37 °FPassing clouds.12 mph81%29.03 "HgN/A
Weather by CustomWeather, © 2015

See weather overviewHow to use our weather pages